Location: Leo
(52.0556°N, 112.3605°W)
Time: 10:57:54
(UTC+00:00)

FO-29 - Pass Details

Date: 01 December 2023
Orbit: 799 x 1322 km, 98.6° (Epoch: 01 March)

Event Time Altitude Azimuth Distance (km) Brightness Sun altitude
Rises 11:06:11 0° 14° (NNE) 4,025 13.0 -37.2°
Reaches altitude 10° 11:08:42 10° 13° (NNE) 3,123 12.3 -36.8°
Enters shadow 11:13:04 41° 4° (N) 1,722 10.7 -36.1°
